Regional Weather Roundup
Issued by NWS

Home | Current Version | Previous Version | Text Only | Print | Product List | Glossary Off
Versions: 1 2 3 4 5 6 7 8 9 10 11 12 13 14 15 16 17 18 19 20 21 22 23 24 25 26 27 28

000
ASUS45 KTFX 041910
RWRMT
MONTANA REGIONAL WEATHER ROUNDUP
NATIONAL WEATHER SERVICE GREAT FALLS MT
100 PM MDT WED MAY 04 2016

NOTE: "FAIR" INDICATES FEW OR NO CLOUDS BELOW 12000 FEET WITH NO
SIGNIFICANT WEATHER AND/OR OBSTRUCTIONS TO VISIBILITY.

MTZ001>007-043-042000-
WEST OF THE DIVIDE

CITY           SKY/WX    TMP DP  RH WIND       PRES   REMARKS
KALISPELL      MOSUNNY   72  44  36 S9        29.97F
MISSOULA       MOSUNNY   70  40  33 VRB3      30.01F
BUTTE          SUNNY     68  24  19 VRB5      30.09F
MULLAN PASS    MOSUNNY   61  32  33 VRB3      30.10F
ANACONDA         N/A     72  25  17 S7        30.05F
DEER LODGE       N/A     73  27  17 SE13G20   30.03F
EUREKA           N/A     75  45  33 W6        29.94F
HAMILTON         N/A     73  37  27 CALM      30.00F
LIBBY            N/A     70  43  37 CALM      29.96F
$$

MTZ008-052>055-042000-
SOUTHWEST MONTANA

CITY           SKY/WX    TMP DP  RH WIND       PRES   REMARKS
BOZEMAN        CLOUDY    76  31  19 CALM      30.05F
DILLON         SUNNY     73  25  16 SW20G31   30.09F
ENNIS          MOSUNNY   72  25  17 S24G31    30.14F
$$

MTZ009-010-012-014-046-048-049-054-042000-
EAST SLOPES AND CENTRAL MONTANA

CITY           SKY/WX    TMP DP  RH WIND       PRES   REMARKS
CUT BANK         N/A     78  34  20 CALM      29.93F
GREAT FALLS    SUNNY     80  30  16 SW18G26   29.95F
MALMSTROM AFB  SUNNY     79  34  20 SW12G24   29.95F
HELENA         PTSUNNY   75  35  23 VRB3      30.00F
CHOTEAU          N/A     79  25  13 W12       29.95F
CONRAD           N/A     79  41  25 W2        29.97F
$$

MTZ011-013-016-021-045-047-050-051-042000-
NORTH CENTRAL MONTANA

CITY           SKY/WX    TMP DP  RH WIND       PRES   REMARKS
HAVRE          SUNNY     77  46  33 SW6       29.92F
LEWISTOWN      SUNNY     80  27  14 W6G16     29.99F
N BAR RANCH      N/A     77  34  20 N9G16     30.03S
$$

MTZ017>020-022>027-061-062-042000-
NORTHEAST MONTANA

CITY           SKY/WX    TMP DP  RH WIND       PRES   REMARKS
GLASGOW        LGT RAIN  82  41  23 S15G22    29.93F
JORDAN           N/A     80  41  24 S12       29.95F
SIDNEY         SUNNY     81  43  26 S13G18    29.98F
WOLF POINT     SUNNY     84  41  21 S10       29.93F
POPLAR           N/A     82  37  20 S16       29.95F
SCOBEY           N/A     81  41  24 S9        29.94
$$

MTZ028>42-056>058-042000-
SOUTHCENTRAL AND SOUTHEAST MONTANA

CITY           SKY/WX    TMP DP  RH WIND       PRES   REMARKS
BAKER          SUNNY     79  38  22 S16G26    30.05F
BILLINGS       MOSUNNY   79  29  16 W8        30.02F
LIVINGSTON     SUNNY     77  29  17 SW18G24   30.05F
MILES CITY     SUNNY     83  37  19 S14G21    29.98F
EKALAKA          N/A     74  36  25 SE12      30.05
FORSYTH          N/A     81  39  22 CALM      29.98F
LAUREL           N/A     78  35  21 S5        30.01F
ROUNDUP          N/A     79  36  21 S8        29.91F
$$

REGIONAL REPORTS...DAKOTAS

CITY           SKY/WX    TMP DP  RH WIND       PRES   REMARKS
WILLISTON      SUNNY     83  38  20 SW15      29.97F
MINOT          SUNNY     84  37  18 S7        29.97F
DICKINSON      SUNNY     77  38  24 SW7       30.02F
BEACH            N/A     79  36  21 S15G21    30.05F
CROSBY           N/A     84  34  16 SW18      29.96F
TIOGA            N/A     81  36  19 SW9G21    30.02F
WATFORD CITY     N/A     82  37  20 S10G21    29.99F
BISMARCK       SUNNY     74  38  27 VRB3      30.04F
GRAND FORKS    MOSUNNY   64  34  32 VRB3      30.04F
FARGO          SUNNY     66  31  27 N7        30.04F
BUFFALO SD       N/A     78  37  22 S12G20    30.01F
RAPID CITY     SUNNY     75  40  28 VRB7      30.11F
$$

REGIONAL REPORTS...WYOMING/IDAHO/WASHINGTON

CITY           SKY/WX    TMP DP  RH WIND       PRES   REMARKS
GILLETTE       SUNNY     74  33  22 W3        30.09F
SHERIDAN       SUNNY     79  36  21 E8        30.05F
BUFFALO WY     SUNNY     74  31  20 CALM      30.11F
CODY           SUNNY     75  27  16 S6        30.09F
YELLOWSTONE LA   N/A     59  22  24 VRB5      30.29F
IDAHO FALLS    MOSUNNY   72  32  23 CALM      30.12F
SALMON         PTSUNNY   70  37  30 NW5       30.03F
BOISE          PTSUNNY   82  33  17 SE12G28   29.93F
SPOKANE        PTSUNNY   71  44  37 CALM      29.98S
$$

REGIONAL REPORTS...ALBERTA

CITY           SKY/WX    TMP DP  RH WIND       PRES   REMARKS
EDMONTON       MOSUNNY   81  37  21 S3        29.76F
CALGARY        PTSUNNY   77  28  16 SW10G17   29.85F
LETHBRIDGE     PTSUNNY   82  32  16 S18G25    29.88F
MEDICINE HAT   MOSUNNY   82  39  21 SW5       29.86F
WATERTON GATE    N/A     70  34  26 SW15G22     N/A
MILK RIVER       N/A     77  34  20 W3          N/A
ONEFOUR          N/A     77  37  24 SE12G17     N/A
$$

REGIONAL REPORTS...SASKATCHEWAN

CITY           SKY/WX    TMP DP  RH WIND       PRES   REMARKS
SWIFT CURRENT  SUNNY     82  28  14 W12G23    29.88F
REGINA         MOSUNNY   84  39  20 SW15G26   29.86F
SASKATOON      SUNNY     88  32  13 SW23G30   29.76F
CYPRESS HILLS    N/A     75  32  20 S10         N/A
VAL MARIE        N/A     81  37  21 S14G20      N/A
ROCKGLEN         N/A     79  37  22 SW14G25     N/A
$$




USA.gov is the U.S. government's official web portal to all federal, state and local government web resources and services.